Location: Puketoi
(40.5833°S, 176.0167°E)
Time: 13:57:12
(UTC+00:00)

USA 290 - Pass Details

Date: 08 February 2023
Orbit: 401 x 409 km, 73.6° (Epoch: 13 March)

Event Time Altitude Azimuth Distance (km) Brightness Sun altitude
Exits shadow 15:47:26 20° 25° (NNE) 1,015 4.0 -18.1°
Maximum altitude 15:49:04 33° 76° (ENE) 722 3.7 -17.9°
Drops below altitude 10° 15:52:03 10° 141° (SE) 1,496 6.3 -17.4°
Sets 15:54:13 0° 151° (SSE) 2,365 7.3 -17.1°
